Location: Arthez
(43.0833°N, 0.2500°W)
Time: 21:40:40
(UTC+00:00)

deb Kosmos-970 - Pass Details

Date: 20 August 2022
Orbit: 900 x 1112 km, 65.8° (Epoch: 28 September)

Event Time Altitude Azimuth Distance (km) Brightness Sun altitude
Rises 01:14:44 0° 318° (NW) 3,927 ? -32.1°
Reaches altitude 10° 01:17:50 10° 308° (NW) 2,947 ? -31.9°
Enters shadow 01:20:34 21° 290° (WNW) 2,241 ? -31.8°
